Location: Sternwarte_Laufen
(47.9344°N, 12.9346°E)
Time: 23:53:09
(UTC+01:00)

ISS - Pass Details

Date: 11 November 2018
Orbit: 402 x 409 km, 51.6° (Epoch: 14 November)

Event Time Altitude Azimuth Distance (km) Brightness Sun altitude
Exits shadow 05:08:45 85° 104° (ESE) 411 -3.9 -20.0°
Drops below altitude 10° 05:11:57 10° 114° (ESE) 1,461 0.0 -19.5°
Sets 05:14:02 0° 114° (ESE) 2,320 1.3 -19.2°
